Pontiac, IL

8:43 AM CST on November 19, 2017 (GMT -0600)
Pontiac Municipal

Weather History for KPNT - April, 2013

Change the Weather History Date:

Wednesday, April 17, 2013

  Actual Average Record
Temperature  
Mean Temperature 50 °F -  
Max Temperature 60 °F 64 °F 87 °F (2004)
Min Temperature 44 °F 41 °F 24 °F (1907)
Degree Days  
Heating Degree Days 14    
Moisture  
Dew Point 45 °F    
Average Humidity 85    
Maximum Humidity 100    
Minimum Humidity 71    
Precipitation  
Precipitation 0.41 in - - ()
Sea Level Pressure  
Sea Level Pressure 30.05 in    
Wind  
Wind Speed 15 mph (ENE)    
Max Wind Speed 26 mph    
Max Gust Speed 34 mph    
Visibility 8 miles    
Events Rain , Thunderstorm    
Averages and records for this station are not official NWS values.
T = Trace of Precipitation, MM = Missing Value Source: NWS Daily Summary

Daily Weather History Graph

Daily Weather History Graph

Search for Another Location

Airport or City:

Trip Planner

Search our weather history database for the weather conditions in past years. The results will help you decide how hot, cold, wet, or windy it might be!

Date:

Astronomy

Apr. 17, 2013 Rise Set
Actual Time 6:12 AM CDT 7:36 PM CDT
Civil Twilight 5:43 AM CDT 8:05 PM CDT
Nautical Twilight 5:09 AM CDT 8:39 PM CDT
Astronomical Twilight 4:32 AM CDT 9:16 PM CDT
Moon 11:25 AM CDT (4/17) 1:15 AM CDT (4/17)
Length of Visible Light 14h 21m
Length of Day
13h 24m
Waxing Crescent, 42% of the Moon is Illuminated
Apr 17
Waxing Crescent
Apr 18
First Quarter
Apr 25
Full
May 2
Last Quarter
May 9
New

Hourly Weather History & Observations

Time (CDT) Temp. Windchill Dew Point Humidity Pressure Visibility Wind Dir Wind Speed Gust Speed Precip Events Conditions
12:15 AM 46.4 °F 41.5 °F 39.2 °F 76% 30.23 in 10.0 mi ENE 10.4 mph - N/A   Overcast
12:35 AM 46.4 °F 40.4 °F 39.2 °F 76% 30.23 in 10.0 mi ENE 13.8 mph - N/A   Overcast
12:55 AM 46.4 °F 40.1 °F 37.4 °F 71% 30.24 in 10.0 mi ENE 15.0 mph - N/A   Overcast
1:15 AM 46.4 °F 40.7 °F 37.4 °F 71% 30.24 in 10.0 mi ENE 12.7 mph - N/A   Overcast
1:35 AM 46.4 °F 40.4 °F 37.4 °F 71% 30.25 in 10.0 mi NE 13.8 mph - N/A   Overcast
1:55 AM 46.4 °F 41.1 °F 37.4 °F 71% 30.24 in 10.0 mi NE 11.5 mph - N/A   Overcast
2:15 AM 44.6 °F 38.4 °F 37.4 °F 76% 30.22 in 10.0 mi ENE 12.7 mph - N/A   Overcast
2:35 AM 44.6 °F 38.1 °F 37.4 °F 76% 30.22 in 10.0 mi NE 13.8 mph - N/A   Overcast
2:55 AM 44.6 °F 38.4 °F 37.4 °F 76% 30.22 in 10.0 mi ENE 12.7 mph - N/A   Overcast
3:15 AM 44.6 °F 37.8 °F 37.4 °F 76% 30.21 in 10.0 mi ENE 15.0 mph - N/A   Overcast
3:35 AM 44.6 °F 37.8 °F 37.4 °F 76% 30.22 in 10.0 mi ENE 15.0 mph - N/A   Overcast
3:55 AM 44.6 °F 36.9 °F 37.4 °F 76% 30.20 in 10.0 mi ENE 18.4 mph - N/A   Overcast
4:15 AM 44.6 °F 37.2 °F 37.4 °F 76% 30.20 in 10.0 mi NE 17.3 mph 21.9 mph N/A   Overcast
4:35 AM 44.6 °F 37.4 °F 35.6 °F 71% 30.19 in 10.0 mi ENE 16.1 mph - N/A   Overcast
4:55 AM 44.6 °F 37.2 °F 37.4 °F 76% 30.18 in 10.0 mi ENE 17.3 mph - N/A   Overcast
5:15 AM 44.6 °F 37.2 °F 37.4 °F 76% 30.17 in 10.0 mi ENE 17.3 mph 23.0 mph N/A   Overcast
5:35 AM 44.6 °F 37.8 °F 37.4 °F 76% 30.18 in 10.0 mi ENE 15.0 mph 19.6 mph N/A   Overcast
5:55 AM 44.6 °F 37.8 °F 37.4 °F 76% 30.18 in 10.0 mi ENE 15.0 mph - N/A Thunderstorm Overcast
6:15 AM 44.6 °F 38.1 °F 37.4 °F 76% 30.19 in 10.0 mi ENE 13.8 mph - N/A   Overcast
6:35 AM 46.4 °F 39.8 °F 39.2 °F 76% 30.17 in 10.0 mi East 16.1 mph - N/A Thunderstorm Mostly Cloudy
6:55 AM 46.4 °F 40.1 °F 39.2 °F 76% 30.17 in 10.0 mi ENE 15.0 mph - N/A Thunderstorm Overcast
7:15 AM 46.4 °F 39.2 °F 39.2 °F 76% 30.15 in 10.0 mi East 18.4 mph - N/A Thunderstorm Overcast
7:35 AM 46.4 °F 40.1 °F 39.2 °F 76% 30.16 in 10.0 mi East 15.0 mph - N/A   Overcast
7:55 AM 46.4 °F 40.7 °F 39.2 °F 76% 30.17 in 10.0 mi East 12.7 mph - N/A Thunderstorm Thunderstorm
8:15 AM 46.4 °F 39.8 °F 39.2 °F 76% 30.16 in 10.0 mi East 16.1 mph - N/A   Overcast
8:35 AM 46.4 °F 40.1 °F 41.0 °F 81% 30.15 in 10.0 mi East 15.0 mph - N/A   Overcast
8:55 AM 46.4 °F 40.4 °F 41.0 °F 81% 30.14 in 10.0 mi ENE 13.8 mph - N/A   Overcast
9:15 AM 48.2 °F - 42.8 °F 82% 30.12 in 10.0 mi ENE 12.7 mph 18.4 mph N/A   Overcast
9:35 AM 48.2 °F - 42.8 °F 82% 30.11 in 10.0 mi East 16.1 mph - N/A   Overcast
9:55 AM 48.2 °F - 42.8 °F 82% 30.10 in 10.0 mi East 18.4 mph - N/A   Overcast
10:15 AM 50.0 °F - 44.6 °F 82% 30.10 in 10.0 mi East 19.6 mph 24.2 mph N/A   Overcast
10:55 AM 51.8 °F - 44.6 °F 76% 30.09 in 10.0 mi East 16.1 mph 21.9 mph N/A   Overcast
11:15 AM 51.8 °F - 44.6 °F 76% 30.07 in 10.0 mi East 19.6 mph - N/A   Overcast
11:35 AM 51.8 °F - 46.4 °F 82% 30.07 in 4.0 mi East 19.6 mph - N/A   Overcast
11:55 AM 51.8 °F - 48.2 °F 88% 30.05 in 5.0 mi East 19.6 mph 26.5 mph N/A Rain Light Rain
12:15 PM 51.8 °F - 48.2 °F 88% 30.04 in 5.0 mi East 19.6 mph - N/A   Overcast
12:35 PM 51.8 °F - 48.2 °F 88% 30.02 in 7.0 mi ESE 19.6 mph 27.6 mph N/A   Overcast
12:55 PM 51.8 °F - 50.0 °F 94% 30.01 in 7.0 mi ESE 19.6 mph 27.6 mph N/A   Overcast
1:15 PM 53.6 °F - 51.8 °F 94% 30.00 in 5.0 mi ESE 18.4 mph 23.0 mph N/A   Overcast
1:35 PM 53.6 °F - 51.8 °F 94% 29.99 in 5.0 mi ESE 16.1 mph 23.0 mph N/A   Overcast
1:55 PM 55.4 °F - 51.8 °F 88% 29.98 in 5.0 mi ESE 18.4 mph 21.9 mph N/A   Overcast
2:15 PM 55.4 °F - 53.6 °F 94% 29.95 in 5.0 mi ESE 20.7 mph 24.2 mph N/A   Overcast
2:35 PM 57.2 °F - 53.6 °F 88% 29.94 in 5.0 mi ESE 17.3 mph - N/A Thunderstorm Overcast
2:55 PM 57.2 °F - 55.4 °F 94% 29.93 in 4.0 mi ESE 16.1 mph - N/A Thunderstorm Overcast
3:35 PM 51.8 °F - 51.8 °F 100% 29.98 in 2.0 mi North 17.3 mph - 0.01 in Rain , Thunderstorm Light Thunderstorms and Rain
3:55 PM 51.8 °F - 50.0 °F 94% 29.99 in 2.5 mi North 16.1 mph - 0.01 in Thunderstorm Unknown
4:15 PM 48.2 °F - 46.4 °F 93% 30.02 in 2.0 mi North 23.0 mph 27.6 mph 0.01 in Rain Rain
4:35 PM 46.4 °F 37.7 °F 46.4 °F 100% 30.02 in 2.0 mi North 26.5 mph 34.5 mph 0.01 in Thunderstorm Drizzle
4:55 PM 46.4 °F 37.9 °F 44.6 °F 93% 30.01 in 2.0 mi NNE 25.3 mph 32.2 mph 0.01 in Rain , Thunderstorm Light Thunderstorms and Rain
5:15 PM 48.2 °F - 46.4 °F 93% 29.95 in 3.0 mi ENE 23.0 mph - 0.02 in Rain Rain
5:35 PM 48.2 °F - 46.4 °F 93% 29.94 in 10.0 mi ENE 18.4 mph - 0.02 in Rain Rain
5:55 PM 50.0 °F - 48.2 °F 94% 29.94 in 10.0 mi ENE 13.8 mph 17.3 mph 0.02 in Rain , Thunderstorm Light Thunderstorms and Rain
6:15 PM 50.0 °F - 48.2 °F 94% 29.92 in 10.0 mi ENE 17.3 mph 21.9 mph N/A Thunderstorm Overcast
6:35 PM 50.0 °F - 48.2 °F 94% 29.95 in 10.0 mi NE 9.2 mph - N/A Thunderstorm Unknown
6:55 PM 50.0 °F - 48.2 °F 94% 29.88 in 10.0 mi ENE 19.6 mph - 0.01 in Rain , Thunderstorm Light Thunderstorms and Rain
7:15 PM 50.0 °F - 48.2 °F 94% 29.87 in 10.0 mi East 18.4 mph - N/A   Clear
7:35 PM 51.8 °F - 50.0 °F 94% 29.87 in 10.0 mi East 13.8 mph - N/A Thunderstorm Scattered Clouds
7:55 PM 51.8 °F - 50.0 °F 94% 29.88 in 10.0 mi NE 11.5 mph - N/A Thunderstorm Mostly Cloudy
8:15 PM 51.8 °F - 50.0 °F 94% 29.89 in 7.0 mi ENE 6.9 mph - N/A Thunderstorm Overcast
8:35 PM 51.8 °F - 50.0 °F 94% 29.90 in 5.0 mi ESE 9.2 mph - 0.06 in Rain , Thunderstorm Heavy Thunderstorms and Rain
8:55 PM 51.8 °F - 50.0 °F 94% 29.86 in 10.0 mi East 17.3 mph - 0.10 in Rain Light Rain
9:15 PM 51.8 °F - 50.0 °F 94% 29.87 in 7.0 mi East 12.7 mph - 0.03 in Rain Rain
9:55 PM 51.8 °F - 51.8 °F 100% 29.84 in 7.0 mi East 20.7 mph - 0.14 in Rain , Thunderstorm Light Thunderstorms and Rain
10:15 PM 51.8 °F - 51.8 °F 100% 29.82 in 7.0 mi East 13.8 mph - N/A Rain , Thunderstorm Light Thunderstorms and Rain
10:35 PM 53.6 °F - 51.8 °F 94% 29.80 in 7.0 mi East 12.7 mph 17.3 mph 0.01 in Rain , Thunderstorm Light Thunderstorms and Rain
10:55 PM 53.6 °F - 53.6 °F 100% 29.79 in 7.0 mi NE 10.4 mph 24.2 mph N/A Thunderstorm Thunderstorm
11:15 PM 55.4 °F - 53.6 °F 94% 29.77 in 7.0 mi NNE 3.5 mph - N/A Rain Light Rain
11:35 PM 55.4 °F - 55.4 °F 100% 29.75 in 7.0 mi East 18.4 mph 23.0 mph N/A Rain , Thunderstorm Light Thunderstorms and Rain
11:55 PM 60.8 °F - 55.4 °F 82% 29.82 in 5.0 mi Calm Calm - 0.11 in Rain , Thunderstorm Heavy Thunderstorms and Rain